Погода в Чэньчжоу

Китай     25°47′41″N   113°01′40″E
темп.,
°C
ветер,
м/с
пор.,
м/с
влажн.,
%
обл.,
%
осадки,
мм/ч
давл.,
гПа
погр.,
м
4 марта, чт
чт423:00+7ссв119564 0.7 102334
02:00+8в119579 1.4 1021102
05:00+8сз0195100 1.4 1020101
08:00+9с009597 4.5 1021125
11:00+13юв018399 0.3 1021282
14:00+20з127069 0.9 1017686
17:00+17ссв118188 0.6 1016204
20:00+15всв019384 1.6 101676
5 марта, пт
пт523:00+14ю129530 0.8 101845
02:00+14ююв239430 0.9 101695
05:00+13ююв12968 0.4 101535
08:00+16ю249144 0.4 1015226
11:00+21ююз257967 1.8 1016621
14:00+23ю467270 2.8 1013797
17:00+22ю477529 2.4 1011680
20:00+18ююв349117 5.2 1013126
6 марта, сб
сб623:00+17ююв129530 4.4 101553
02:00+17ююв119643 6.9 101539
05:00+16сз129876 2.5 101580
08:00+14с259688 5.9 1018355
11:00+12ссз3697100 5.1 1020406
14:00+12ссз3596100 7.7 1019332
17:00+12с3695100 0.1 1019339
20:00+11ссз3695100 0.2 1022389
7 марта, вс
вс723:00+9с3595100 0.1 1025352
02:00+9ссз3596100 0.1 1024262
05:00+8ссз2596100 0.1 1024241
08:00+8с2395100 0.1 1026279
11:00+9ссз2492100 0.0 1026308
14:00+10с3490100 0.0 1023383
17:00+10с2492100 0.0 1023343
20:00+9ссз2395100 0.0 1024226
8 марта, пн
пн823:00+9сз1296100 0.0 1025186
02:00+9ссз1296100 0.2 1024134
05:00+9с1298100 0.1 1023117
08:00+9зсз1196100 0.3 1024100
11:00+11с129399 0.4 1024183
14:00+11с239299 1.2 1022291
17:00+11с2295100 0.4 1021217
20:00+10ссв249698 0.4 1023229